TimeCST,TemperatureF,Dew PointF,Humidity,Sea Level PressureIn,VisibilityMPH,Wind Direction,Wind SpeedMPH,Gust SpeedMPH,PrecipitationIn,Events,Conditions,WindDirDegrees,DateUTC
12:53 AM,28.0,23.0,81,30.53,10.0,Calm,Calm,-,N/A,,Clear,0,2013-01-18 06:53:00
1:53 AM,26.1,21.9,84,30.55,10.0,Calm,Calm,-,N/A,,Clear,0,2013-01-18 07:53:00
2:53 AM,26.1,21.9,84,30.55,10.0,Calm,Calm,-,N/A,,Clear,0,2013-01-18 08:53:00
3:53 AM,25.0,21.0,85,30.55,10.0,Calm,Calm,-,N/A,,Clear,0,2013-01-18 09:53:00
4:53 AM,25.0,21.9,88,30.55,10.0,Calm,Calm,-,N/A,,Clear,0,2013-01-18 10:53:00
5:53 AM,25.0,21.0,85,30.54,10.0,Calm,Calm,-,N/A,,Clear,0,2013-01-18 11:53:00
6:53 AM,24.1,19.9,84,30.55,10.0,Calm,Calm,-,N/A,,Clear,0,2013-01-18 12:53:00
7:53 AM,26.1,21.9,84,30.57,10.0,Calm,Calm,-,N/A,,Clear,0,2013-01-18 13:53:00
8:53 AM,30.0,26.1,85,30.57,10.0,Calm,Calm,-,N/A,,Clear,0,2013-01-18 14:53:00
9:53 AM,35.1,25.0,67,30.57,10.0,SSE,6.9,-,N/A,,Clear,160,2013-01-18 15:53:00
10:53 AM,37.9,26.1,62,30.56,10.0,South,6.9,-,N/A,,Clear,180,2013-01-18 16:53:00
11:53 AM,39.9,27.0,60,30.51,10.0,SSW,8.1,-,N/A,,Clear,200,2013-01-18 17:53:00
12:53 PM,43.0,28.9,58,30.46,10.0,SSW,6.9,-,N/A,,Clear,200,2013-01-18 18:53:00
1:53 PM,45.0,30.0,56,30.43,10.0,SSW,10.4,-,N/A,,Clear,210,2013-01-18 19:53:00
2:53 PM,46.0,30.9,56,30.40,10.0,South,15.0,-,N/A,,Clear,190,2013-01-18 20:53:00
3:53 PM,46.0,33.1,61,30.38,10.0,SSW,11.5,-,N/A,,Clear,200,2013-01-18 21:53:00
4:53 PM,45.0,33.1,63,30.37,10.0,South,8.1,-,N/A,,Clear,190,2013-01-18 22:53:00
5:53 PM,42.1,33.1,70,30.36,10.0,South,6.9,-,N/A,,Clear,180,2013-01-18 23:53:00
6:53 PM,39.9,32.0,73,30.35,10.0,SSW,6.9,-,N/A,,Clear,200,2013-01-19 00:53:00
7:53 PM,39.0,32.0,76,30.35,10.0,South,8.1,-,N/A,,Clear,190,2013-01-19 01:53:00
8:53 PM,39.9,32.0,73,30.33,10.0,South,10.4,-,N/A,,Clear,180,2013-01-19 02:53:00
9:53 PM,37.9,30.9,76,30.32,10.0,SSW,9.2,-,N/A,,Clear,200,2013-01-19 03:53:00
10:53 PM,36.0,30.0,79,30.30,10.0,SSW,5.8,-,N/A,,Clear,200,2013-01-19 04:53:00
11:53 PM,37.0,30.9,79,30.29,10.0,South,3.5,-,N/A,,Clear,180,2013-01-19 05:53:00